CZ-6A DEB

Satellite information

Favourite Embed

Satellite Type and Status

DEBRISIN ORBIT

Key statistics

Satellite CZ-6A DEB at a glance.

Uptime

275

Days in orbit

Revolutions

≈ 14.6

Per day

Orbit

LEO

Low Earth Orbit

Inclination

89.0

Latest

Satellite identification and parameters

Extended collection of information and parameters for CZ-6A DEB.

Object identification

Identified? True

Debris? True

Object name: CZ-6A DEB

International designator: 2024-140JH

Object number (NORAD): 60854

Object ID (CCSDS): 60854

Country: PEOPLES REPUBLIC OF CHINA (PRC)

Current information (Y/N): Y

RCS size: SMALL

Orbital parameters

Period: 98.487 minutes

Inclination: 88.954 deg

SMA: 7064.452 km

Apoapsis: 765.872 km

Periapsis: 606.763 km

RAAN: 316.8271 deg

Eccentricy: 0.0112612

Argument of periapsis: 206.9773 deg

Mean anomaly: 152.5561 deg

Mean motion: 14.62126719 rev/day

Mean motion (dot): 0.00009119 rev/day2

B* drag term: 0.0016527 1/REarth

Two-line elements (TLE)

Creation date: May 8, 2025, 3:01 a.m.

Reference frame: TEME

Reference center: EARTH

Epoch: May 7, 2025, 6:53 p.m. UTC

TLE line 0: 0 CZ-6A DEB

TLE line 1: 1 60854U 24140JH 25127.78681327 .00009119 00000-0 16527-2 0 9996

TLE line 2: 2 60854 88.9540 316.8271 0112612 206.9773 152.5561 14.62126719 38807

Live tracking on map

Real-time ground track for satellite CZ-6A DEB.

In-orbit conjunctions

A list of the most updated potential collisions computed for object CZ-6A DEB.

Target Orbit TCA Probability of collision Miss distance Type
SEASAT 1 SSO 2025-04-26 02:31:16 0.000239415 312.0 (m) PAYLOAD
SL-16 R/B SSO 2025-04-15 09:32:38 0.0008157465 135.0 (m) ROCKET BODY
SL-14 R/B LEO 2024-11-14 22:57:24 0.0001576998 944.0 (m) ROCKET BODY
COSMOS 407 LEO 2024-10-05 07:49:16 0.0001390848 628.0 (m) PAYLOAD

Associated space launch

18 Low Earth Orbit communication satellites with Ku, Q and V band payloads for the G60 constellation operated by Shanghai Spacecom Satellite Technology (SSST) with funding backed by the Shanghai local government. Initial constellation will consist of 1296 satellites by 2027 with long term plans to expand it to 12000 satellites.

CZ-6A DEB was lifted into orbit during the mission ‘Long March 6A | G60 Polar Group 01’, on board a Long March 6A space rocket.

The launch took place on Aug. 6, 2024, 6:42 a.m. from Launch Complex 9A.

For more information about the launch, click the button.

Launch to space Long March 6A | G60 Polar Group 01
Long March 6A | G60 Polar Group 01

Agency: N/A

Status: Launch Successful

Launch date: Aug. 6, 2024, 6:42 a.m. UTC

Rocket: Long March 6A

Launch pad: Launch Complex 9A

Location: Taiyuan Satellite Launch Center, People's Republic of China

...

Latest news about this satellite

News about space launch
Brightness of first Chinese broadband constellation satellites alarms astronomers

The first satellites of a Chinese broadband constellation are significantly brighter than those of Western systems, posing a new challenge for astronomers.

News about space launch
Chinese rocket stage breaks up into cloud of more than 700 pieces of space debris

HELSINKI — A Chinese Long March 6A rocket’s upper stage has fragmented into a cloud of over 700 pieces of space debris, adding to concerns about long-term orbital safety. China […]

News about space launch
China's Thousand Sails Megaconstellation Kicks Off with Dangerous Debris Field

China's Thousand Sails Megaconstellation Kicks Off with Dangerous Debris Field


Newsletter sign-up

Weekly statistics, charts and insights to help you stay on top of the space industry.